Albany, OH

4:51 AM EST on February 21, 2017 (GMT -0500)
Ohio University

Weather History for KUNI - December, 2012

Change the Weather History Date:

Monday, December 10, 2012

  Actual Average (KLHQ) Record (KLHQ)
Temperature  
Mean Temperature 46 °F -  
Max Temperature 58 °F 41 °F 60 °F (1946)
Min Temperature 34 °F 22 °F -8 °F (1958)
Degree Days  
Heating Degree Days 19    
Moisture  
Dew Point 44 °F    
Average Humidity 92    
Maximum Humidity 96    
Minimum Humidity 86    
Precipitation  
Precipitation 0.00 in - - ()
Sea Level Pressure  
Sea Level Pressure 29.72 in    
Wind  
Wind Speed 7 mph (WSW)    
Max Wind Speed 14 mph    
Max Gust Speed 18 mph    
Visibility 8 miles    
Events Rain , Thunderstorm    
Averages and records for this station are not official NWS values.
T = Trace of Precipitation, MM = Missing Value Source: NWS Daily Summary

Daily Weather History Graph

Daily Weather History Graph

Search for Another Location

Airport or City:

Trip Planner

Search our weather history database for the weather conditions in past years. The results will help you decide how hot, cold, wet, or windy it might be!

Date:

Astronomy

Dec. 10, 2012 Rise Set
Actual Time 7:37 AM EST 5:06 PM EST
Civil Twilight 7:07 AM EST 5:36 PM EST
Nautical Twilight 6:34 AM EST 6:09 PM EST
Astronomical Twilight 6:01 AM EST 6:42 PM EST
Moon 4:20 AM EST (12/10) 2:53 PM EST (12/10)
Length of Visible Light 10h 28m
Length of Day
9h 28m
Waning Crescent, 10% of the Moon is Illuminated
Dec 10
Waning Crescent
Dec 13
New
Dec 20
First Quarter
Dec 28
Full
Jan 4
Last Quarter

Hourly Weather History & Observations

Time (EST) Temp. Windchill Dew Point Humidity Pressure Visibility Wind Dir Wind Speed Gust Speed Precip Events Conditions
12:15 AM 58.1 °F - 55.4 °F 91% 29.72 in 10.0 mi South 6.9 mph - N/A Rain Light Rain
12:35 AM 58.1 °F - 55.6 °F 91% 29.71 in 7.0 mi South 5.8 mph - N/A Rain Heavy Rain
12:55 AM 56.5 °F - 53.6 °F 90% 29.74 in 7.0 mi West 13.8 mph - N/A Rain Rain
1:15 AM 55.9 °F - 52.9 °F 89% 29.73 in 10.0 mi WSW 9.2 mph - N/A Rain Rain
1:55 AM 54.5 °F - 52.2 °F 92% 29.74 in 7.0 mi WSW 8.1 mph - N/A Rain Light Rain
2:15 AM 54.1 °F - 52.2 °F 93% 29.73 in 10.0 mi South 3.5 mph - N/A Rain Rain
2:35 AM 54.0 °F - 52.2 °F 94% 29.73 in 10.0 mi SSW 6.9 mph - N/A Rain Light Rain
2:55 AM 53.8 °F - 52.2 °F 94% 29.72 in 7.0 mi South 4.6 mph - N/A Rain Rain
3:15 AM 53.6 °F - 52.0 °F 94% 29.71 in 10.0 mi South 5.8 mph - N/A Rain Light Rain
3:55 AM 53.6 °F - 52.0 °F 94% 29.71 in 7.0 mi South 3.5 mph - N/A Rain Rain
4:15 AM 53.6 °F - 52.2 °F 95% 29.69 in 7.0 mi South 5.8 mph - N/A Rain Rain
4:35 AM 53.6 °F - 52.3 °F 95% 29.68 in 5.0 mi South 6.9 mph - N/A Rain Rain
4:55 AM 54.0 °F - 52.7 °F 95% 29.68 in 10.0 mi South 4.6 mph - N/A Rain Light Rain
5:15 AM 54.1 °F - 52.9 °F 95% 29.67 in 7.0 mi South 4.6 mph - N/A Rain Light Rain
5:35 AM 54.1 °F - 52.9 °F 95% 29.68 in 10.0 mi South 5.8 mph - N/A Rain Light Rain
5:55 AM 54.5 °F - 53.4 °F 96% 29.67 in 7.0 mi South 6.9 mph - N/A Rain Rain
6:15 AM 54.9 °F - 53.6 °F 96% 29.66 in 7.0 mi South 5.8 mph - N/A Rain Light Rain
6:35 AM 55.4 °F - 54.0 °F 95% 29.66 in 7.0 mi South 8.1 mph - N/A Rain Rain
6:55 AM 55.6 °F - 54.1 °F 95% 29.66 in 10.0 mi South 6.9 mph - N/A Rain Light Rain
7:15 AM 55.8 °F - 54.3 °F 95% 29.67 in 10.0 mi SSW 5.8 mph - N/A   Overcast
7:35 AM 55.9 °F - 54.5 °F 95% 29.66 in 10.0 mi SSW 5.8 mph - N/A   Overcast
7:55 AM 55.8 °F - 54.0 °F 94% 29.66 in 10.0 mi South 6.9 mph - N/A   Mostly Cloudy
8:15 AM 55.8 °F - 54.1 °F 94% 29.67 in 10.0 mi SSW 5.8 mph - N/A   Mostly Cloudy
8:35 AM 55.8 °F - 54.0 °F 94% 29.66 in 10.0 mi South 5.8 mph - N/A   Overcast
8:55 AM 55.8 °F - 54.0 °F 94% 29.66 in 10.0 mi South 6.9 mph - N/A   Overcast
9:15 AM 55.9 °F - 53.8 °F 92% 29.65 in 10.0 mi South 6.9 mph - N/A Rain Light Rain
9:35 AM 55.4 °F - 53.4 °F 93% 29.64 in 10.0 mi South 6.9 mph - N/A Rain Light Rain
9:55 AM 55.4 °F - 53.6 °F 94% 29.64 in 10.0 mi South 5.8 mph - N/A Rain Light Rain
10:15 AM 55.4 °F - 53.6 °F 94% 29.64 in 10.0 mi South 6.9 mph - N/A Rain Rain
10:35 AM 55.4 °F - 53.6 °F 94% 29.64 in 5.0 mi SW 4.6 mph - N/A Rain Rain
10:55 AM 50.9 °F - 48.6 °F 92% 29.65 in 4.0 mi WNW 11.5 mph 18.4 mph N/A Rain Heavy Rain
11:15 AM 49.6 °F - 47.7 °F 93% 29.65 in 10.0 mi WNW 6.9 mph - N/A   Light Drizzle
11:35 AM 49.3 °F - 47.3 °F 93% 29.64 in 3.0 mi West 5.8 mph - N/A Thunderstorm Drizzle
11:55 AM 48.9 °F - 47.1 °F 93% 29.64 in 4.0 mi WNW 6.9 mph - N/A Rain Light Rain
12:15 PM 48.4 °F - 46.4 °F 93% 29.64 in 7.0 mi NW 5.8 mph - N/A Rain Light Rain
12:35 PM 47.3 °F - 45.3 °F 93% 29.64 in 3.0 mi WNW 8.1 mph 16.1 mph N/A Rain Heavy Rain
12:55 PM 46.6 °F - 44.6 °F 93% 29.66 in 7.0 mi West 11.5 mph - N/A Rain Rain
1:15 PM 45.7 °F 42.7 °F 43.7 °F 93% 29.65 in 5.0 mi WNW 5.8 mph - N/A Rain Heavy Rain
1:35 PM 45.1 °F 40.8 °F 43.3 °F 93% 29.66 in 10.0 mi WNW 8.1 mph - N/A Rain Rain
1:55 PM 44.2 °F 39.2 °F 42.1 °F 92% 29.66 in 7.0 mi WNW 9.2 mph - N/A Rain Light Rain
2:15 PM 43.7 °F 39.1 °F 41.2 °F 91% 29.65 in 10.0 mi WNW 8.1 mph - N/A Rain Light Rain
2:35 PM 43.2 °F 39.0 °F 40.5 °F 90% 29.66 in 10.0 mi WNW 6.9 mph - N/A Rain Rain
2:55 PM 41.9 °F 35.4 °F 39.4 °F 91% 29.67 in 10.0 mi NW 11.5 mph 18.4 mph N/A Rain Light Rain
3:15 PM 40.6 °F 36.0 °F 37.6 °F 89% 29.66 in 10.0 mi NNW 6.9 mph - N/A Rain Light Rain
3:35 PM 40.1 °F 35.3 °F 36.5 °F 87% 29.68 in 7.0 mi NW 6.9 mph - N/A Rain Light Rain
3:55 PM 40.1 °F 34.7 °F 36.5 °F 87% 29.69 in 10.0 mi NW 8.1 mph - N/A   Overcast
4:15 PM 40.1 °F 36.1 °F 36.1 °F 86% 29.72 in 10.0 mi WNW 5.8 mph - N/A   Overcast
4:55 PM 39.2 °F 35.0 °F 36.1 °F 89% 29.74 in 4.0 mi NW 5.8 mph - N/A Rain Rain
5:15 PM 38.7 °F 36.3 °F 36.5 °F 92% 29.73 in 4.0 mi North 3.5 mph - N/A Rain Rain
5:35 PM 38.7 °F 35.2 °F 36.5 °F 92% 29.75 in 5.0 mi WNW 4.6 mph - N/A   Light Drizzle
5:55 PM 38.7 °F 35.2 °F 36.1 °F 91% 29.75 in 7.0 mi WNW 4.6 mph - N/A Rain Light Rain
6:15 PM 38.5 °F 33.4 °F 36.0 °F 91% 29.77 in 7.0 mi WNW 6.9 mph - N/A Rain Light Rain
6:35 PM 38.3 °F 33.9 °F 35.8 °F 91% 29.76 in 7.0 mi WNW 5.8 mph - N/A Rain Light Rain
6:55 PM 37.6 °F 34.0 °F 35.4 °F 92% 29.77 in 4.0 mi West 4.6 mph - N/A Rain Rain
7:15 PM 37.2 °F 32.6 °F 35.1 °F 92% 29.79 in 4.0 mi West 5.8 mph - N/A Rain Light Rain
7:35 PM 36.5 °F 31.8 °F 34.0 °F 91% 29.78 in 7.0 mi WNW 5.8 mph - N/A Rain Light Rain
7:55 PM 36.5 °F 32.7 °F 34.0 °F 91% 29.78 in 7.0 mi WNW 4.6 mph - N/A Rain Rain
8:15 PM 35.6 °F 29.9 °F 33.3 °F 91% 29.80 in 10.0 mi West 6.9 mph - N/A Rain Light Rain
8:35 PM 35.1 °F 29.3 °F 32.9 °F 92% 29.82 in 10.0 mi West 6.9 mph - N/A   Overcast
8:55 PM 35.1 °F 28.6 °F 32.5 °F 91% 29.84 in 10.0 mi West 8.1 mph - N/A   Overcast
9:15 PM 34.7 °F 26.9 °F 32.2 °F 91% 29.85 in 10.0 mi West 10.4 mph - N/A   Overcast
9:35 PM 34.7 °F 28.8 °F 32.0 °F 90% 29.85 in 10.0 mi WNW 6.9 mph - N/A   Overcast
9:55 PM 34.3 °F 29.2 °F 32.0 °F 91% 29.86 in 10.0 mi West 5.8 mph - N/A   Overcast
10:15 PM 34.2 °F 28.2 °F 31.8 °F 91% 29.87 in 10.0 mi WNW 6.9 mph - N/A   Overcast
10:35 PM 34.2 °F 28.2 °F 32.0 °F 92% 29.88 in 10.0 mi West 6.9 mph - N/A   Overcast
10:55 PM 34.2 °F 28.2 °F 31.8 °F 91% 29.88 in 7.0 mi West 6.9 mph - N/A   Overcast
11:15 PM 34.2 °F 29.0 °F 31.8 °F 91% 29.89 in 7.0 mi West 5.8 mph - N/A   Overcast
11:35 PM 34.2 °F 27.5 °F 31.8 °F 91% 29.89 in 7.0 mi WNW 8.1 mph - N/A   Overcast
11:55 PM 34.0 °F 28.8 °F 31.1 °F 89% 29.90 in 7.0 mi WNW 5.8 mph - N/A   Overcast